Location: Abundant Life Assembly of God Church
(32.6840°N, 97.0100°W)
Time: 22:34:02
(UTC+00:00)

Daily predictions for brighter satellites

Satellite Brightness Start Highest point End
(mag) Time Altitude Azimuth Time Altitude Azimuth Time Altitude Azimuth
Cosmos 2369 3.9 12:00:23 10° SW 12:05:50 48° WNW 12:11:18 10° N
Aurora 2 Rocket 4.3 12:02:31 17° WSW 12:06:06 37° S 12:12:34 10° ESE
Cosmos 1400 Rocket 2.6 12:03:38 10° SSW 12:07:20 58° W 12:11:06 10° N
Cosmos 773 Rocket 4.5 12:05:53 10° NW 12:10:38 37° W 12:15:20 10° SSW
Cosmos 2082 4.5 12:05:53 10° N 12:11:27 54° ENE 12:16:57 10° SE
Cosmos 1782 Rocket 3.4 12:07:08 10° S 12:11:30 77° W 12:15:56 10° N
Cosmos 1908 Rocket 4.1 12:07:56 10° SW 12:11:51 33° W 12:15:49 10° NNW
SL-16 R/B 2.5 12:08:42 10° SSW 12:14:19 72° ESE 12:19:58 10° NNE
Cosmos 1812 2.1 12:13:28 15° SW 12:15:04 32° W 12:17:16 10° NNW
CZ-4 R/B 4.1 12:11:55 10° N 12:16:40 47° WNW 12:21:22 10° SW
IGS 5A 3.2 12:13:50 10° N 12:17:48 80° WNW 12:21:45 10° SSW
Cosmos 372 Rocket 3.8 12:19:07 10° SSW 12:24:09 77° WNW 12:29:16 10° NNE
Cosmos 2227 Rocket 3.1 12:21:25 10° NW 12:26:07 27° WSW 12:30:48 10° SSW
Cosmos 2333 Rocket 2.6 12:20:41 10° S 12:26:24 71° ESE 12:32:07 10° NNE
Cosmos 1898 Rocket 3.5 12:28:25 10° SSW 12:33:41 83° WNW 12:39:00 10° NNE
Cosmos 1869 3.5 12:30:34 10° SSW 12:33:53 38° W 12:37:12 10° NNW
Hubble Space Telescope 3.5 12:32:50 10° S 12:33:56 11° SSE 12:35:02 10° SE
DELTA 2 R/B (1) 3.8 12:31:03 10° WSW 12:36:35 76° SSE 12:42:09 10° ENE
Cosmos 2221 Rocket 4.4 12:33:11 10° NNW 12:37:07 30° W 12:41:01 10° SSW
Cosmos 2173 Rocket 4.0 12:33:56 10° S 12:40:16 80° W 12:46:41 10° N
BREEZE-M DEB (TANK) 2.2 12:38:09 10° SW 12:40:24 77° NW 12:44:58 10° NE
Cosmos 1025 Rocket 4.3 12:37:18 10° NW 12:40:24 19° W 12:43:29 10° SW
Cosmos 2322 Rocket 2.6 12:39:10 10° S 12:44:49 72° ESE 12:50:27 10° NNE
Cosmos 1937 Rocket 3.5 12:41:45 10° SSW 12:46:52 87° WNW 12:52:04 10° NNE
Cosmos 1346 Rocket 2.6 12:43:16 10° N 12:46:57 88° E 12:50:36 10° S
SL-4 R/B 1.8 12:43:30 10° NW 12:47:10 86° NE 12:51:00 10° SE
DMSP B5D1-3 4.5 12:43:05 10° S 12:48:06 70° WSW 12:53:09 10° NNW
NOSS 3-1 (A) 4.0 12:44:29 10° WSW 12:48:08 23° NW 12:52:14 10° N
Cosmos 1980 Rocket 4.0 12:47:49 10° WNW 12:48:26 10° NW 12:49:02 10° NW
BREEZE-M DEB (TANK) 2.4 12:46:04 10° WSW 12:48:42 71° NW 12:55:25 10° NE
Cosmos 2219 Rocket 4.0 12:44:06 10° S 12:49:14 38° ESE 12:54:24 10° NE
COSMO-SKYMED 1 3.2 12:45:57 10° SSW 12:49:36 31° W 12:53:16 10° NW
USA 215 4.1 12:44:17 10° ESE 12:50:33 50° NE 12:56:51 10° NNW
Cosmos 2100 Rocket 4.1 12:47:02 10° SSW 12:53:17 60° W 12:59:34 10° N
